• Join FlightAware (Why Join?)
  • Login
  • US Flag 
07:19PM EDT


 

Airport Tracker/Info


-or-


 

Live Flight TrackerFlight Track Log ✈ N703RM ✈ 16-Aug-2013 ✈ KHEF - KILG

Flight Track Log - Related Links

Times and Time Zones

All times are in EDT time to prevent confusion due to time zone crossing. See the N703RM flight status page for this flight to view local times or setup timezone preferences in your user account.

Time Position Orientation Groundspeed Altitude Reporting Facility
EDT Latitude Longitude Course Direction KTS MPH feet Rate Location/Type
01:13PM 38.6833 -77.5000 32° Northeast 168 193 1,600  Level Potomac TRACON
01:14PM 38.6833 -77.5667 270° West 202 232 2,400 660 Climbing Potomac TRACON
01:15PM 38.6833 -77.6333 270° West 217 250 3,000 240 Climbing Potomac TRACON
01:16PM 38.7167 -77.7167 297° West 235 270 3,000 420 Level Potomac TRACON
01:17PM 38.7833 -77.7333 349° North 209 241 4,000 600 Climbing Potomac TRACON
01:18PM 38.8333 -77.7500 345° North 234 269 4,200 1,140 Climbing Potomac TRACON
01:19PM 39.0299 -77.2729 32° Northeast  Level FlightAware Approximate
01:19PM 38.9000 -77.7667 349° North 186 214 6,300  Level Potomac TRACON
01:20PM 38.9500 -77.7667 360° North 224 258 7,000 300 Climbing Potomac TRACON
01:21PM 39.0000 -77.7000 46° Northeast 239 275 7,000  Level Potomac TRACON
01:22PM 39.0333 -77.6333 57° Northeast 248 285 7,000  Level Potomac TRACON
01:24PM 39.0833 -77.5500 52° Northeast 247 284 7,100 480 Climbing Potomac TRACON
01:25PM 39.1167 -77.4833 57° Northeast 226 260 8,000 480 Climbing Potomac TRACON
01:26PM 39.1500 -77.4167 57° Northeast 245 282 8,100 420 Climbing Potomac TRACON
01:27PM 39.1833 -77.3500 57° Northeast 231 266 8,900 420 Climbing Potomac TRACON
01:27PM 39.2167 -77.2833 57° Northeast 243 280 9,000  Climbing Potomac TRACON
01:28PM 39.2500 -77.2000 63° Northeast 254 292 9,000  Level Potomac TRACON
01:30PM 39.3000 -77.1167 52° Northeast 258 297 9,000  Level Potomac TRACON
01:31PM 39.3333 -77.0333 63° Northeast 257 296 9,000  Level Potomac TRACON
01:32PM 39.3167 -76.9500 104° East 256 295 9,000  Level Potomac TRACON
01:33PM 39.3000 -76.8667 104° East 257 296 9,000  Level Potomac TRACON
01:34PM 39.2833 -76.7667 102° East 257 296 9,000  Level Potomac TRACON
01:35PM 39.2500 -76.6833 117° Southeast 268 308 9,000  Level Potomac TRACON
01:36PM 39.2333 -76.5833 102° East 268 308 9,000  Level Potomac TRACON
01:37PM 39.2167 -76.5000 104° East 257 296 9,000  Level Potomac TRACON
01:38PM 39.1833 -76.4000 113° Southeast 258 297 9,000  Level Potomac TRACON
01:39PM 39.1667 -76.3167 104° East 259 298 9,000 -720 Level Potomac TRACON
01:40PM 39.2000 -76.2333 63° Northeast 279 321 7,600 -1,380 Descending Potomac TRACON
01:41PM 39.2500 -76.1500 52° Northeast 265 305 6,100 -960 Descending Potomac TRACON
01:43PM 39.3333 -76.0500 43° Northeast 244 281 5,000 -420 Descending Philadelphia TRACON
01:44PM 39.3833 -75.9833 46° Northeast 236 272 5,000  Level Philadelphia TRACON
01:45PM 39.4333 -75.9333 38° Northeast 236 272 5,000  Level Philadelphia TRACON
01:46PM 39.4833 -75.8667 46° Northeast 237 273 5,000  Level Philadelphia TRACON
01:47PM 39.5333 -75.8333 27° Northeast 207 238 5,000 -60 Level Philadelphia TRACON
01:48PM 39.5833 -75.8167 14° North 195 224 4,900 -960 Descending Philadelphia TRACON
01:49PM 39.6500 -75.8000 11° North 224 258 3,300 -1,320 Descending Philadelphia TRACON
01:50PM 39.6833 -75.7500 49° Northeast 182 209 2,200 -780 Descending Philadelphia TRACON
01:51PM 39.7167 -75.7167 38° Northeast 153 176 1,700 -480 Descending Philadelphia TRACON
01:52PM 39.7167 -75.6667 90° East 131 151 1,200 -540 Descending Philadelphia TRACON